User: anonymous   Login
Location: South Tamworth Observatory
(43.8246°N, 71.3026°W)
Time: 19:28:52
(UTC-04:00)
Language:

Cosmos 2208 Rocket - Orbit

View from above orbital plane
View from above orbital plane
View from above satellite
View from above satellite

Ground track
Ground track

The orbit data is extracted from the following two-line orbital elements,

1 22081U 92053B   18142.53528740 -.00000028 +00000-0 -72451-6 0  9999
2 22081 074.0428 177.4410 0034887 062.5406 297.9286 14.33419539347466
Epoch (UTC): 22 May 2018 12:50:48
Eccentricity: 0.0034887
inclination: 74.0428°
perigee height: 755 km
apogee height: 805 km
right ascension of ascending node: 177.4410°
argument of perigee: 62.5406°
revolutions per day: 14.33419539
mean anomaly at epoch: 297.9286°
orbit number at epoch: 34746

The dashed part of the orbit path shows where the satellite is in the earth's shadow,  

DLR